EN

Hourly Weather Tomelloso

Today, 12 April, Monday

Time Temperature Precipitation Wind Pressure Humidity
00:00 +10°C° 0 mm 3 mps 704 mmHg 78%
01:00 +10°C° 0 mm 3 mps 704 mmHg 78%
02:00 +9°C° 0 mm 3 mps 705 mmHg 78%
03:00 +9°C° 0 mm 3 mps 705 mmHg 78%
04:00 +8°C° 0 mm 3 mps 705 mmHg 78%
05:00 +8°C° 0 mm 3 mps 705 mmHg 78%
06:00 +8°C° 0 mm 3 mps 705 mmHg 79%
07:00 +9°C° 0 mm 3 mps 706 mmHg 70%
08:00 +10°C° 0 mm 4 mps 706 mmHg 62%
09:00 +12°C° 0 mm 4 mps 707 mmHg 53%
10:00 +13°C° 0 mm 3 mps 707 mmHg 48%
11:00 +14°C° 0 mm 3 mps 707 mmHg 43%
12:00 +17°C° 0 mm 3 mps 707 mmHg 37%
13:00 +17°C° 0 mm 3 mps 707 mmHg 35%
14:00 +18°C° 0 mm 3 mps 706 mmHg 33%
15:00 +18°C° 0 mm 3 mps 706 mmHg 31%
16:00 +18°C° 0 mm 3 mps 706 mmHg 32%
17:00 +17°C° 0 mm 3 mps 706 mmHg 34%
18:00 +17°C° 0 mm 3 mps 706 mmHg 36%
19:00 +14°C° 0 mm 3 mps 707 mmHg 36%
20:00 +13°C° 0 mm 3 mps 707 mmHg 36%
21:00 +12°C° 0 mm 3 mps 707 mmHg 35%
22:00 +12°C° 0 mm 3 mps 707 mmHg 38%
23:00 +12°C° 0 mm 2 mps 707 mmHg 41%

Tomorrow, 13 April, Tuesday

Time Temperature Precipitation Wind Pressure Humidity
00:00 +12°C° 0 mm 2 mps 707 mmHg 44%
01:00 +10°C° 0 mm 2 mps 707 mmHg 53%
02:00 +10°C° 0 mm 2 mps 706 mmHg 61%
03:00 +10°C° 0 mm 2 mps 706 mmHg 70%
04:00 +9°C° 0 mm 2 mps 706 mmHg 74%
05:00 +9°C° 0 mm 2 mps 706 mmHg 78%
06:00 +8°C° 0 mm 2 mps 706 mmHg 82%
07:00 +10°C° 0 mm 2 mps 706 mmHg 72%
08:00 +13°C° 0 mm 2 mps 707 mmHg 62%
09:00 +15°C° 0 mm 1 mps 707 mmHg 52%
10:00 +18°C° 0 mm 1 mps 707 mmHg 47%
11:00 +19°C° 0 mm 1 mps 707 mmHg 42%
12:00 +18°C° 0 mm 0 mps 707 mmHg 36%
13:00 +21°C° 0 mm 1 mps 706 mmHg 35%
14:00 +21°C° 0 mm 1 mps 706 mmHg 34%
15:00 +22°C° 0 mm 1 mps 705 mmHg 33%
16:00 +21°C° 0 mm 1 mps 705 mmHg 36%
17:00 +20°C° 0 mm 2 mps 705 mmHg 39%
18:00 +19°C° 0 mm 2 mps 705 mmHg 41%
19:00 +18°C° 0 mm 2 mps 705 mmHg 46%
20:00 +17°C° 0 mm 2 mps 705 mmHg 50%
21:00 +14°C° 0 mm 3 mps 705 mmHg 54%
22:00 +14°C° 0 mm 3 mps 705 mmHg 57%
23:00 +13°C° 0 mm 3 mps 704 mmHg 60%

Day after tomorrow, 14 April, Wednesday

Time Temperature Precipitation Wind Pressure Humidity
00:00 +13°C° 0 mm 3 mps 704 mmHg 63%
01:00 +12°C° 0 mm 3 mps 704 mmHg 65%
02:00 +12°C° 0 mm 3 mps 704 mmHg 67%
03:00 +11°C° 0 mm 3 mps 703 mmHg 68%
04:00 +11°C° 0 mm 3 mps 703 mmHg 69%
05:00 +11°C° 0 mm 3 mps 703 mmHg 69%
06:00 +11°C° 0 mm 3 mps 703 mmHg 70%
07:00 +12°C° 0 mm 3 mps 703 mmHg 63%
08:00 +14°C° 0 mm 4 mps 703 mmHg 57%
09:00 +17°C° 0 mm 4 mps 703 mmHg 51%
10:00 +18°C° 0 mm 4 mps 703 mmHg 46%
11:00 +20°C° 0 mm 4 mps 703 mmHg 42%
12:00 +21°C° 0 mm 3 mps 703 mmHg 38%
13:00 +21°C° 0 mm 4 mps 702 mmHg 39%
14:00 +21°C° 0 mm 4 mps 701 mmHg 39%
15:00 +21°C° 0 mm 5 mps 701 mmHg 40%
16:00 +19°C° 0.2 mm 5 mps 701 mmHg 51%
17:00 +16°C° 0.2 mm 5 mps 701 mmHg 62%
18:00 +14°C° 0.2 mm 5 mps 701 mmHg 72%
19:00 +14°C° 0.2 mm 4 mps 701 mmHg 74%
20:00 +13°C° 0.2 mm 4 mps 701 mmHg 77%
21:00 +13°C° 0.2 mm 3 mps 702 mmHg 79%
22:00 +13°C° 0.1 mm 3 mps 701 mmHg 79%
23:00 +12°C° 0.1 mm 4 mps 701 mmHg 80%

15 April, Thursday

Time Temperature Precipitation Wind Pressure Humidity
00:00 +12°C° 0.1 mm 4 mps 701 mmHg 80%
01:00 +10°C° 0 mm 5 mps 700 mmHg 81%
02:00 +10°C° 0 mm 5 mps 700 mmHg 81%
03:00 +9°C° 0 mm 6 mps 700 mmHg 82%
04:00 +9°C° 0.1 mm 6 mps 700 mmHg 83%
05:00 +9°C° 0.1 mm 6 mps 700 mmHg 84%
06:00 +9°C° 0.1 mm 6 mps 700 mmHg 85%
07:00 +9°C° 0.3 mm 6 mps 700 mmHg 85%
08:00 +9°C° 0.3 mm 7 mps 700 mmHg 86%
09:00 +9°C° 0.3 mm 7 mps 700 mmHg 87%
10:00 +9°C° 0.8 mm 8 mps 700 mmHg 87%
11:00 +7°C° 0.8 mm 8 mps 700 mmHg 87%
12:00 +7°C° 0.8 mm 8 mps 700 mmHg 87%
13:00 +7°C° 1.2 mm 8 mps 699 mmHg 87%
14:00 +7°C° 1.2 mm 8 mps 699 mmHg 88%
15:00 +8°C° 1.2 mm 7 mps 699 mmHg 88%
16:00 +8°C° 1.3 mm 7 mps 699 mmHg 89%
17:00 +6°C° 1.3 mm 7 mps 699 mmHg 89%
18:00 +6°C° 1.3 mm 7 mps 699 mmHg 90%
19:00 +6°C° 0.5 mm 7 mps 700 mmHg 90%
20:00 +6°C° 0.5 mm 7 mps 700 mmHg 89%
21:00 +6°C° 0.5 mm 7 mps 700 mmHg 89%
22:00 +6°C° 0.2 mm 7 mps 700 mmHg 88%
23:00 +7°C° 0.2 mm 6 mps 700 mmHg 88%

16 April, Friday

Time Temperature Precipitation Wind Pressure Humidity
00:00 +7°C° 0.2 mm 6 mps 700 mmHg 88%
01:00 +7°C° 0.1 mm 5 mps 700 mmHg 88%
02:00 +7°C° 0.1 mm 5 mps 700 mmHg 88%
03:00 +7°C° 0.1 mm 5 mps 700 mmHg 88%
04:00 +7°C° 0 mm 4 mps 700 mmHg 87%
05:00 +7°C° 0 mm 4 mps 700 mmHg 87%
06:00 +7°C° 0 mm 4 mps 701 mmHg 87%
07:00 +7°C° 0 mm 4 mps 701 mmHg 82%
08:00 +8°C° 0 mm 4 mps 701 mmHg 77%
09:00 +10°C° 0 mm 4 mps 702 mmHg 72%
10:00 +11°C° 0 mm 3 mps 702 mmHg 66%
11:00 +12°C° 0 mm 3 mps 701 mmHg 60%
12:00 +15°C° 0 mm 2 mps 701 mmHg 54%
13:00 +15°C° 0 mm 2 mps 701 mmHg 51%
14:00 +16°C° 0 mm 2 mps 701 mmHg 47%
15:00 +17°C° 0 mm 2 mps 701 mmHg 44%
16:00 +17°C° 0 mm 2 mps 701 mmHg 45%
17:00 +16°C° 0 mm 2 mps 701 mmHg 46%
18:00 +16°C° 0 mm 2 mps 701 mmHg 47%
19:00 +15°C° 0 mm 2 mps 701 mmHg 50%
20:00 +14°C° 0 mm 3 mps 701 mmHg 52%
21:00 +13°C° 0 mm 3 mps 701 mmHg 55%
22:00 +12°C° 0.1 mm 3 mps 701 mmHg 62%
23:00 +11°C° 0.1 mm 3 mps 701 mmHg 68%

17 April, Saturday

Time Temperature Precipitation Wind Pressure Humidity
00:00 +11°C° 0.1 mm 3 mps 700 mmHg 75%
01:00 +10°C° 0.2 mm 3 mps 700 mmHg 76%
02:00 +10°C° 0.2 mm 4 mps 700 mmHg 77%
03:00 +10°C° 0.2 mm 4 mps 700 mmHg 78%
04:00 +9°C° 0 mm 3 mps 700 mmHg 73%
05:00 +9°C° 0 mm 3 mps 701 mmHg 68%
06:00 +9°C° 0 mm 2 mps 701 mmHg 63%
07:00 +9°C° 0 mm 3 mps 701 mmHg 55%
08:00 +10°C° 0 mm 3 mps 701 mmHg 46%
09:00 +11°C° 0 mm 3 mps 702 mmHg 38%
10:00 +12°C° 0 mm 3 mps 702 mmHg 36%
11:00 +13°C° 0 mm 3 mps 702 mmHg 35%
12:00 +14°C° 0 mm 3 mps 701 mmHg 33%
13:00 +15°C° 0 mm 4 mps 701 mmHg 32%
14:00 +17°C° 0 mm 4 mps 701 mmHg 32%
15:00 +16°C° 0 mm 5 mps 701 mmHg 31%
16:00 +17°C° 0 mm 4 mps 701 mmHg 32%
17:00 +15°C° 0 mm 4 mps 701 mmHg 33%
18:00 +14°C° 0 mm 3 mps 701 mmHg 33%
19:00 +13°C° 0 mm 3 mps 701 mmHg 34%
20:00 +12°C° 0 mm 3 mps 702 mmHg 35%
21:00 +12°C° 0 mm 2 mps 702 mmHg 36%
22:00 +10°C° 0 mm 2 mps 702 mmHg 39%
23:00 +10°C° 0 mm 3 mps 702 mmHg 41%
Show more

We Need Your Consent

Meteoprog and our Service Providers may store and access personal data such as cookies, device identifiers or other similar technologies on your device and process such data to personalise content and ads, as well as provide social media features and to analyse the traffic.

  • Store and/or access information on your device

    Cookies, device identifiers or other information can be stored or accessed on your device for the purposes indicated above.

  • Personalised ads and content, ad and content measurement, audience insights, and products development

    Ads and content can be personalised based on a profile. More data can be added to better personalise ads and content. Ad and content performance can be measured. Insights about the audience who saw the ads and content can be derived. Such data can be used to develop or improve user’s experience, systems and software.

By clicking ‘I Agree’ you will allow the use of indicated cookies, device identifiers, web beacons or other similar technologies. Your settings can be changed in the browser on your device.

For certain purposes, legitimate interests may be relied on, rather than consent. You can read more about this in our Privacy and Cookie Policy.